Battle Creek, MI

8:41 PM EDT on June 21, 2018 (GMT -0400)
Kellogg

Weather History for KBTL - January, 2016

Change the Weather History Date:

Friday, January 1, 2016

  Actual Average Record
Temperature  
Mean Temperature 26 °F 24 °F  
Max Temperature 28 °F 32 °F 54 °F (2011)
Min Temperature 23 °F 16 °F 1 °F (2002)
Degree Days  
Heating Degree Days 39 41  
Month to date heating degree days 39 41  
Since 1 July heating degree days 1699 2641  
Cooling Degree Days 0 0  
Month to date cooling degree days 0 0  
Year to date cooling degree days 0 0  
Moisture  
Dew Point 19 °F    
Average Humidity 72    
Maximum Humidity 81    
Minimum Humidity 63    
Precipitation  
Precipitation T in 0.07 in 0.14 in (2011)
Month to date precipitation T 0.07  
Year to date precipitation T 0.07  
Sea Level Pressure  
Sea Level Pressure 30.12 in    
Wind  
Wind Speed 16 mph (WSW)    
Max Wind Speed 24 mph    
Max Gust Speed 33 mph    
Visibility 7 miles    
Events Snow    
T = Trace of Precipitation, MM = Missing Value Source: NWS Daily Summary

Daily Weather History Graph

Daily Weather History Graph

Search for Another Location

Airport or City:

Astronomy

Jan. 01, 2016 Rise Set
Actual Time 8:10 AM EST 5:18 PM EST
Civil Twilight 7:38 AM EST 5:50 PM EST
Nautical Twilight 7:02 AM EST 6:26 PM EST
Astronomical Twilight 6:28 AM EST 7:00 PM EST
Moon No Moon Rise 12:13 PM EST (1/1)
Length of Visible Light 10h 12m
Length of Day
9h 08m
Waning Gibbous, 55% of the Moon is Illuminated
Jan 1
Waning Gibbous
Jan 2
Last Quarter
Jan 9
New
Jan 16
First Quarter
Jan 23
Full

Hourly Weather History & Observations

Time (EST) Temp. Windchill Dew Point Humidity Pressure Visibility Wind Dir Wind Speed Gust Speed Precip Events Conditions
12:53 AM 27.0 °F 12.8 °F 18.0 °F 69% 30.19 in 10.0 mi WSW 21.9 mph 25.3 mph N/A   Overcast
1:30 AM 27.0 °F 16.1 °F 19.9 °F 75% 30.13 in 9.0 mi SW 12.7 mph - N/A   Overcast
1:53 AM 26.1 °F 12.7 °F 19.0 °F 75% 30.16 in 5.0 mi SW 18.4 mph 25.3 mph 0.00 in Snow Light Snow
2:33 AM 25.0 °F 11.7 °F 19.0 °F 78% 30.12 in 4.0 mi SW 17.3 mph - 0.00 in Snow Light Snow
2:53 AM 24.1 °F 9.8 °F 19.0 °F 81% 30.16 in 4.0 mi SW 19.6 mph - 0.00 in Snow Light Snow
3:05 AM 24.1 °F 11.0 °F 19.9 °F 84% 30.11 in 2.5 mi SW 16.1 mph - 0.00 in Snow Light Snow
3:13 AM 24.1 °F 11.5 °F 19.0 °F 81% 30.11 in 5.0 mi SW 15.0 mph - 0.00 in Snow Light Snow
3:26 AM 24.1 °F 10.6 °F 19.0 °F 81% 30.11 in 1.8 mi SW 17.3 mph - 0.00 in Snow Light Snow
3:36 AM 24.1 °F 11.5 °F 19.0 °F 81% 30.10 in 3.0 mi SW 15.0 mph - 0.00 in Snow Light Snow
3:53 AM 24.1 °F 10.6 °F 19.0 °F 81% 30.14 in 3.0 mi SW 17.3 mph - 0.00 in Snow Light Snow
4:53 AM 24.1 °F 10.6 °F 19.0 °F 81% 30.11 in 2.5 mi SW 17.3 mph 24.2 mph 0.00 in Snow Light Snow
5:07 AM 24.1 °F 9.8 °F 18.0 °F 77% 30.07 in 3.0 mi SW 19.6 mph - 0.00 in Snow Light Snow
5:53 AM 25.0 °F 11.3 °F 18.0 °F 75% 30.11 in 10.0 mi SW 18.4 mph - 0.00 in   Overcast
6:53 AM 26.1 °F 13.6 °F 19.0 °F 75% 30.11 in 10.0 mi WSW 16.1 mph - N/A   Overcast
7:53 AM 26.1 °F 14.0 °F 18.0 °F 71% 30.12 in 10.0 mi West 15.0 mph 24.2 mph N/A   Overcast
8:53 AM 25.0 °F 11.3 °F 18.0 °F 75% 30.13 in 6.0 mi West 18.4 mph 26.5 mph 0.00 in Snow Light Snow
9:06 AM 25.0 °F 13.6 °F 19.0 °F 78% 30.10 in 4.0 mi West 12.7 mph - 0.00 in Snow Light Snow
9:53 AM 24.1 °F 11.0 °F 19.0 °F 81% 30.15 in 4.0 mi West 16.1 mph - 0.00 in Snow Light Snow
10:53 AM 23.0 °F 8.7 °F 17.1 °F 78% 30.17 in 3.0 mi West 18.4 mph - 0.00 in Snow Light Snow
11:53 AM 24.1 °F 12.5 °F 18.0 °F 77% 30.16 in 7.0 mi West 12.7 mph - 0.00 in Snow Light Snow
12:53 PM 25.0 °F 13.6 °F 19.0 °F 78% 30.14 in 9.0 mi West 12.7 mph 23.0 mph 0.00 in Snow Light Snow
1:53 PM 25.0 °F 13.1 °F 19.0 °F 78% 30.12 in 9.0 mi WSW 13.8 mph - 0.00 in Snow Light Snow
2:53 PM 24.1 °F 12.0 °F 19.0 °F 81% 30.13 in 9.0 mi SW 13.8 mph - 0.00 in   Overcast
3:46 PM 25.0 °F 12.6 °F 19.0 °F 78% 30.09 in 10.0 mi SW 15.0 mph - N/A   Overcast
3:53 PM 25.0 °F 13.1 °F 19.0 °F 78% 30.14 in 10.0 mi SW 13.8 mph - N/A   Overcast
4:53 PM 26.1 °F 14.0 °F 19.9 °F 78% 30.14 in 10.0 mi SW 15.0 mph - N/A   Overcast
5:53 PM 26.1 °F 14.5 °F 19.9 °F 78% 30.13 in 10.0 mi SW 13.8 mph - N/A   Overcast
6:53 PM 26.1 °F 15.0 °F 19.0 °F 75% 30.14 in 10.0 mi SW 12.7 mph - N/A   Overcast
7:53 PM 26.1 °F 12.7 °F 19.0 °F 75% 30.14 in 10.0 mi SW 18.4 mph - N/A   Overcast
8:53 PM 26.1 °F 14.0 °F 19.0 °F 75% 30.14 in 10.0 mi SW 15.0 mph - N/A   Overcast
9:53 PM 27.0 °F 15.2 °F 19.9 °F 75% 30.12 in 10.0 mi SW 15.0 mph - N/A   Overcast
10:53 PM 27.0 °F 16.1 °F 21.0 °F 78% 30.11 in 10.0 mi SW 12.7 mph - N/A   Overcast
11:21 PM 27.0 °F 15.2 °F 21.0 °F 78% 30.06 in 10.0 mi SSW 15.0 mph - N/A   Overcast
11:53 PM 27.0 °F 15.6 °F 21.0 °F 78% 30.09 in 10.0 mi SW 13.8 mph - N/A   Overcast